| time (UTC) | temp F | wind direction | speed knots | gust knots | rain 1hr in | rain 24hr in | rain mn in | humidity % | barometer mb |
| 20260505231047 | 80 | 327 | 2.6 | 3.5 | 0.00 | 0.00 | 0.00 | 59 | 1025.1 |
| 20260505230544 | 81 | 345 | 0.9 | 1.7 | 0.00 | 0.00 | 0.00 | 58 | 1025.0 |
| 20260505230040 | 82 | 300 | 0.9 | 2.6 | 0.00 | 0.00 | 0.00 | 57 | 1024.9 |
| 20260505225537 | 83 | 268 | 1.7 | 2.6 | 0.00 | 0.00 | 0.00 | 62 | 1024.9 |
| 20260505225033 | 85 | 341 | 1.7 | 1.7 | 0.00 | 0.00 | 0.00 | 70 | 1024.9 |
| 20260505224531 | 85 | 158 | 0.0 | 1.7 | 0.00 | 0.00 | 0.00 | 67 | 1024.5 |
| 20260505224028 | 86 | 49 | 0.0 | 0.9 | 0.00 | 0.00 | 0.00 | 67 | 1024.0 |
| 20260505223525 | 87 | 161 | 1.7 | 3.5 | 0.00 | 0.00 | 0.00 | 66 | 1023.9 |
| 20260505223021 | 87 | 304 | 0.9 | 1.7 | 0.00 | 0.00 | 0.00 | 64 | 1023.9 |
| 20260505222517 | 86 | 220 | 0.9 | 0.9 | 0.00 | 0.00 | 0.00 | 66 | 1024.2 |
| 20260505222013 | 85 | 173 | 0.0 | 2.6 | 0.00 | 0.00 | 0.00 | 69 | 1023.9 |
| 20260505221511 | 85 | 159 | 1.7 | 2.6 | 0.00 | 0.00 | 0.00 | 67 | 1024.0 |
| 20260505221008 | 85 | 164 | 2.6 | 6.1 | 0.00 | 0.00 | 0.00 | 68 | 1024.0 |
| 20260505220504 | 84 | 15 | 0.0 | 0.9 | 0.00 | 0.00 | 0.00 | 69 | 1024.0 |
| 20260505220002 | 85 | 207 | 1.7 | 2.6 | 0.00 | 0.00 | 0.00 | 68 | 1024.0 |
| 20260505215500 | 86 | 154 | 0.9 | 3.5 | 0.00 | 0.00 | 0.00 | 68 | 1024.3 |
| 20260505214958 | 86 | 300 | 0.9 | 1.7 | 0.00 | 0.00 | 0.00 | 66 | 1024.1 |
| 20260505214456 | 87 | 327 | 0.9 | 1.7 | 0.00 | 0.00 | 0.00 | 65 | 1024.2 |
| 20260505213952 | 87 | 292 | 1.7 | 2.6 | 0.00 | 0.00 | 0.00 | 64 | 1024.5 |
| 20260505213450 | 87 | 126 | 2.6 | 5.2 | 0.00 | 0.00 | 0.00 | 65 | 1024.6 |
| 20260505212946 | 87 | 257 | 2.6 | 5.2 | 0.00 | 0.00 | 0.00 | 65 | 1024.3 |
| 20260505212443 | 87 | 319 | 1.7 | 3.5 | 0.00 | 0.00 | 0.00 | 63 | 1024.4 |
| 20260505211939 | 86 | 254 | 1.7 | 5.2 | 0.00 | 0.00 | 0.00 | 67 | 1024.4 |
| 20260505211437 | 87 | 111 | 0.9 | 3.5 | 0.00 | 0.00 | 0.00 | 65 | 1024.5 |
| 20260505210933 | 86 | 126 | 1.7 | 2.6 | 0.00 | 0.00 | 0.00 | 66 | 1024.4 |
| 20260505210431 | 88 | 157 | 1.7 | 2.6 | 0.00 | 0.00 | 0.00 | 64 | 1024.5 |
| 20260505205927 | 88 | 105 | 0.9 | 2.6 | 0.00 | 0.00 | 0.00 | 62 | 1024.5 |
| 20260505205426 | 86 | 294 | 0.9 | 2.6 | 0.00 | 0.00 | 0.00 | 65 | 1024.6 |
| 20260505204922 | 87 | 227 | 2.6 | 3.5 | 0.00 | 0.00 | 0.00 | 65 | 1024.8 |
| 20260505204420 | 87 | 225 | 2.6 | 5.2 | 0.00 | 0.00 | 0.00 | 65 | 1024.7 |
| 20260505203917 | 88 | 300 | 0.9 | 5.2 | 0.00 | 0.00 | 0.00 | 63 | 1025.1 |
| 20260505203413 | 86 | 163 | 0.9 | 1.7 | 0.00 | 0.00 | 0.00 | 65 | 1024.6 |
| 20260505202910 | 85 | 260 | 1.7 | 3.5 | 0.00 | 0.00 | 0.00 | 66 | 1024.9 |
| 20260505202406 | 83 | 196 | 2.6 | 3.5 | 0.00 | 0.00 | 0.00 | 70 | 1025.0 |
| 20260505201903 | 83 | 182 | 0.9 | 7.8 | 0.00 | 0.00 | 0.00 | 70 | 1024.9 |
| 20260505201400 | 83 | 143 | 0.9 | 6.1 | 0.00 | 0.00 | 0.00 | 68 | 1025.1 |
| 20260505200858 | 83 | 306 | 0.0 | 0.9 | 0.00 | 0.00 | 0.00 | 68 | 1025.2 |
| 20260505200355 | 84 | 243 | 0.9 | 5.2 | 0.00 | 0.00 | 0.00 | 68 | 1025.1 |
| 20260505195850 | 84 | 97 | 1.7 | 2.6 | 0.00 | 0.00 | 0.00 | 69 | 1025.0 |
| 20260505195348 | 84 | 346 | 1.7 | 2.6 | 0.00 | 0.00 | 0.00 | 67 | 1025.3 |
| 20260505194845 | 83 | 176 | 1.7 | 3.5 | 0.00 | 0.00 | 0.00 | 69 | 1025.1 |
| 20260505194342 | 83 | 139 | 0.9 | 2.6 | 0.00 | 0.00 | 0.00 | 69 | 1025.0 |
| 20260505193837 | 82 | 204 | 3.5 | 5.2 | 0.00 | 0.00 | 0.00 | 70 | 1025.1 |
| 20260505193335 | 82 | 185 | 3.5 | 7.8 | 0.00 | 0.00 | 0.00 | 69 | 1025.1 |
| 20260505192833 | 83 | 285 | 1.7 | 6.1 | 0.00 | 0.00 | 0.00 | 69 | 1025.1 |
| 20260505192331 | 82 | 190 | 0.9 | 5.2 | 0.00 | 0.00 | 0.00 | 70 | 1024.7 |
| 20260505191828 | 83 | 224 | 0.9 | 7.0 | 0.00 | 0.00 | 0.00 | 69 | 1025.0 |
| 20260505191327 | 84 | 150 | 4.3 | 7.0 | 0.00 | 0.00 | 0.00 | 68 | 1024.9 |
| 20260505190823 | 84 | 156 | 2.6 | 5.2 | 0.00 | 0.00 | 0.00 | 67 | 1024.8 |
| 20260505190318 | 84 | 232 | 1.7 | 2.6 | 0.00 | 0.00 | 0.00 | 68 | 1024.8 |
| 20260505185815 | 84 | 175 | 3.5 | 3.5 | 0.00 | 0.00 | 0.00 | 68 | 1025.1 |
| 20260505185311 | 83 | 283 | 0.9 | 3.5 | 0.00 | 0.00 | 0.00 | 67 | 1025.0 |
| 20260505184807 | 84 | 202 | 2.6 | 5.2 | 0.00 | 0.00 | 0.00 | 68 | 1025.0 |
| 20260505184304 | 83 | 148 | 2.6 | 5.2 | 0.00 | 0.00 | 0.00 | 70 | 1025.1 |
| 20260505183801 | 82 | 87 | 0.0 | 5.2 | 0.00 | 0.00 | 0.00 | 70 | 1025.1 |
| 20260505183258 | 83 | 341 | 1.7 | 3.5 | 0.00 | 0.00 | 0.00 | 69 | 1025.1 |
| 20260505182755 | 82 | 275 | 2.6 | 3.5 | 0.00 | 0.00 | 0.00 | 69 | 1025.1 |
| 20260505182252 | 82 | 196 | 0.9 | 3.5 | 0.00 | 0.00 | 0.00 | 70 | 1025.1 |
| 20260505181748 | 82 | 185 | 1.7 | 7.0 | 0.00 | 0.00 | 0.00 | 69 | 1025.3 |
| 20260505181246 | 82 | 165 | 7.8 | 9.6 | 0.00 | 0.00 | 0.00 | 69 | 1025.3 |
| 20260505180742 | 82 | 89 | 0.0 | 5.2 | 0.00 | 0.00 | 0.00 | 71 | 1024.9 |
| 20260505180239 | 82 | 114 | 2.6 | 7.0 | 0.00 | 0.00 | 0.00 | 72 | 1025.0 |
| 20260505175735 | 82 | 134 | 1.7 | 7.8 | 0.00 | 0.00 | 0.00 | 70 | 1025.1 |
| 20260505175232 | 81 | 168 | 0.9 | 3.5 | 0.00 | 0.00 | 0.00 | 71 | 1025.0 |
| 20260505174728 | 81 | 186 | 5.2 | 9.6 | 0.00 | 0.00 | 0.00 | 71 | 1025.0 |
| 20260505174225 | 81 | 332 | 0.0 | 9.6 | 0.00 | 0.00 | 0.00 | 72 | 1025.0 |
| 20260505173721 | 81 | 239 | 3.5 | 9.6 | 0.00 | 0.00 | 0.00 | 71 | 1025.0 |
| 20260505173218 | 81 | 174 | 2.6 | 7.8 | 0.00 | 0.00 | 0.00 | 72 | 1024.8 |
| 20260505172715 | 80 | 186 | 1.7 | 2.6 | 0.00 | 0.00 | 0.00 | 73 | 1024.8 |
| 20260505172212 | 80 | 233 | 0.9 | 2.6 | 0.00 | 0.00 | 0.00 | 73 | 1024.7 |
| 20260505171712 | 79 | 355 | 0.9 | 7.0 | 0.00 | 0.00 | 0.00 | 74 | 1025.0 |
| 20260505171210 | 80 | 182 | 4.3 | 6.1 | 0.00 | 0.00 | 0.00 | 74 | 1024.3 |
| 20260505170706 | 79 | 186 | 0.9 | 2.6 | 0.00 | 0.00 | 0.00 | 74 | 1025.0 |
| 20260505170203 | 79 | 216 | 4.3 | 7.0 | 0.00 | 0.00 | 0.00 | 74 | 1024.8 |
| 20260505165703 | 79 | 261 | 3.5 | 5.2 | 0.00 | 0.00 | 0.00 | 74 | 1025.2 |
| 20260505165200 | 79 | 231 | 0.9 | 7.0 | 0.00 | 0.00 | 0.00 | 74 | 1025.4 |
| 20260505164655 | 79 | 149 | 1.7 | 5.2 | 0.00 | 0.00 | 0.00 | 74 | 1025.5 |
| 20260505164153 | 80 | 167 | 5.2 | 7.8 | 0.00 | 0.00 | 0.00 | 73 | 1025.4 |
| 20260505163651 | 80 | 342 | 3.5 | 11.3 | 0.00 | 0.00 | 0.00 | 73 | 1024.9 |
| 20260505163149 | 81 | 111 | 0.9 | 1.7 | 0.00 | 0.00 | 0.00 | 73 | 1024.7 |
| 20260505162646 | 80 | 332 | 0.9 | 5.2 | 0.00 | 0.00 | 0.00 | 74 | 1024.8 |
| 20260505162143 | 79 | 151 | 0.0 | 2.6 | 0.00 | 0.00 | 0.00 | 76 | 1024.7 |
| 20260505161640 | 78 | 185 | 1.7 | 6.1 | 0.00 | 0.00 | 0.00 | 76 | 1024.7 |
| 20260505161137 | 78 | 180 | 2.6 | 6.1 | 0.00 | 0.00 | 0.00 | 75 | 1024.8 |
| 20260505160635 | 78 | 175 | 2.6 | 7.0 | 0.00 | 0.00 | 0.00 | 75 | 1024.5 |
| 20260505160132 | 78 | 21 | 3.5 | 6.1 | 0.00 | 0.00 | 0.00 | 76 | 1024.5 |
| 20260505153112 | 76 | 223 | 4.3 | 7.8 | 0.00 | 0.00 | 0.00 | 80 | 1024.9 |
| 20260505152608 | 76 | 200 | 0.9 | 7.8 | 0.00 | 0.00 | 0.00 | 81 | 1024.9 |
| 20260505152104 | 75 | 96 | 1.7 | 3.5 | 0.00 | 0.00 | 0.00 | 81 | 1024.8 |
| 20260505151559 | 75 | 169 | 0.9 | 5.2 | 0.00 | 0.00 | 0.00 | 82 | 1024.8 |
| 20260505151057 | 75 | 168 | 0.9 | 6.1 | 0.00 | 0.00 | 0.00 | 81 | 1024.7 |
| 20260505150553 | 74 | 195 | 0.9 | 5.2 | 0.00 | 0.00 | 0.00 | 82 | 1024.8 |
| 20260505140519 | 73 | 220 | 1.7 | 7.0 | 0.00 | 0.00 | 0.00 | 84 | 1024.6 |
| 20260505124932 | 71 | 119 | 1.7 | 5.2 | 0.00 | 0.00 | 0.00 | 86 | 1024.7 |
| 20260505124429 | 71 | 155 | 6.1 | 7.0 | 0.00 | 0.00 | 0.00 | 86 | 1024.5 |
| 20260505123925 | 71 | 99 | 0.9 | 7.8 | 0.00 | 0.00 | 0.00 | 85 | 1024.5 |
| 20260505123422 | 71 | 191 | 0.9 | 5.2 | 0.00 | 0.00 | 0.00 | 86 | 1024.6 |
| 20260505122917 | 71 | 76 | 0.0 | 7.0 | 0.00 | 0.00 | 0.00 | 86 | 1024.5 |
| 20260505122415 | 71 | 198 | 2.6 | 5.2 | 0.00 | 0.00 | 0.00 | 86 | 1024.2 |
| 20260505121912 | 71 | 251 | 0.9 | 6.1 | 0.00 | 0.00 | 0.00 | 86 | 1024.2 |
| 20260505121409 | 71 | 240 | 5.2 | 8.7 | 0.00 | 0.00 | 0.00 | 86 | 1024.1 |
| 20260505120904 | 71 | 261 | 1.7 | 6.1 | 0.00 | 0.00 | 0.00 | 86 | 1024.1 |
| 20260505120401 | 71 | 131 | 3.5 | 8.7 | 0.00 | 0.00 | 0.00 | 86 | 1024.2 |
| 20260505115900 | 71 | 182 | 7.0 | 11.3 | 0.00 | 0.00 | 0.00 | 86 | 1024.2 |
| 20260505115357 | 71 | 77 | 0.9 | 2.6 | 0.00 | 0.00 | 0.00 | 86 | 1024.1 |
| 20260505114855 | 71 | 136 | 1.7 | 6.1 | 0.00 | 0.00 | 0.00 | 86 | 1024.2 |
| 20260505114351 | 71 | 117 | 3.5 | 5.2 | 0.00 | 0.00 | 0.00 | 86 | 1024.2 |
| 20260505113847 | 71 | 215 | 1.7 | 3.5 | 0.00 | 0.00 | 0.00 | 86 | 1024.2 |
| 20260505113344 | 71 | 265 | 0.9 | 5.2 | 0.00 | 0.00 | 0.00 | 86 | 1024.2 |
| 20260505112840 | 71 | 178 | 1.7 | 6.1 | 0.00 | 0.00 | 0.00 | 86 | 1023.9 |
| 20260505112337 | 71 | 127 | 0.9 | 1.7 | 0.00 | 0.00 | 0.00 | 86 | 1024.1 |
| 20260505111833 | 71 | 127 | 0.9 | 7.0 | 0.00 | 0.00 | 0.00 | 86 | 1023.8 |
| 20260505111329 | 71 | 34 | 3.5 | 7.0 | 0.00 | 0.00 | 0.00 | 86 | 1024.0 |
| 20260505110825 | 71 | 154 | 4.3 | 6.1 | 0.00 | 0.00 | 0.00 | 86 | 1023.9 |
| 20260505110322 | 71 | 192 | 4.3 | 7.8 | 0.00 | 0.00 | 0.00 | 86 | 1023.8 |
| 20260505101757 | 71 | 340 | 0.9 | 3.5 | 0.00 | 0.00 | 0.00 | 86 | 1023.9 |
| 20260505101252 | 71 | 251 | 1.7 | 3.5 | 0.00 | 0.00 | 0.00 | 86 | 1023.9 |
| 20260505100749 | 71 | 236 | 1.7 | 5.2 | 0.00 | 0.00 | 0.00 | 86 | 1024.0 |
| 20260505100246 | 71 | 171 | 3.5 | 7.8 | 0.00 | 0.00 | 0.00 | 86 | 1024.0 |
| 20260505095741 | 71 | 203 | 3.5 | 8.7 | 0.00 | 0.00 | 0.00 | 86 | 1024.1 |
| 20260505095239 | 71 | 304 | 1.7 | 7.0 | 0.00 | 0.00 | 0.00 | 86 | 1023.9 |
| 20260505094734 | 71 | 207 | 2.6 | 7.0 | 0.00 | 0.00 | 0.00 | 85 | 1024.1 |
| 20260505094231 | 71 | 145 | 1.7 | 7.8 | 0.00 | 0.00 | 0.00 | 85 | 1024.0 |
| 20260505093727 | 71 | 122 | 1.7 | 7.8 | 0.00 | 0.00 | 0.00 | 85 | 1024.1 |
| 20260505093225 | 71 | 5 | 0.9 | 5.2 | 0.00 | 0.00 | 0.00 | 86 | 1024.1 |
| 20260505092722 | 71 | 193 | 1.7 | 6.1 | 0.00 | 0.00 | 0.00 | 85 | 1024.3 |
| 20260505092221 | 71 | 156 | 1.7 | 3.5 | 0.00 | 0.00 | 0.00 | 86 | 1024.0 |
| 20260505091717 | 71 | 160 | 4.3 | 6.1 | 0.00 | 0.00 | 0.00 | 85 | 1024.1 |
| 20260505091215 | 71 | 206 | 5.2 | 7.8 | 0.00 | 0.00 | 0.00 | 85 | 1024.1 |
| 20260505090713 | 71 | 359 | 1.7 | 6.1 | 0.00 | 0.00 | 0.00 | 85 | 1024.2 |
| 20260505090211 | 71 | 197 | 1.7 | 6.1 | 0.00 | 0.00 | 0.00 | 85 | 1024.3 |
| 20260505085708 | 71 | 5 | 0.0 | 2.6 | 0.00 | 0.00 | 0.00 | 84 | 1024.1 |
| 20260505085206 | 71 | 154 | 2.6 | 7.0 | 0.00 | 0.00 | 0.00 | 84 | 1024.2 |
| 20260505084703 | 71 | 199 | 3.5 | 5.2 | 0.00 | 0.00 | 0.00 | 84 | 1024.4 |
| 20260505084202 | 71 | 124 | 3.5 | 5.2 | 0.00 | 0.00 | 0.00 | 84 | 1024.3 |
| 20260505083659 | 71 | 75 | 0.0 | 2.6 | 0.00 | 0.00 | 0.00 | 84 | 1024.3 |
| 20260505083155 | 71 | 311 | 0.0 | 5.2 | 0.00 | 0.00 | 0.00 | 84 | 1024.5 |
| 20260505082651 | 71 | 152 | 3.5 | 6.1 | 0.00 | 0.00 | 0.00 | 84 | 1024.3 |
| 20260505082148 | 71 | 168 | 2.6 | 7.0 | 0.00 | 0.00 | 0.00 | 84 | 1024.2 |
| 20260505081644 | 71 | 220 | 2.6 | 6.1 | 0.00 | 0.00 | 0.00 | 83 | 1024.4 |
| 20260505081142 | 71 | 326 | 0.9 | 3.5 | 0.00 | 0.00 | 0.00 | 83 | 1024.1 |
| 20260505080638 | 71 | 124 | 7.0 | 11.3 | 0.00 | 0.00 | 0.00 | 83 | 1024.8 |
| 20260505080134 | 71 | 81 | 3.5 | 7.0 | 0.00 | 0.00 | 0.00 | 83 | 1024.6 |
| 20260505075631 | 71 | 142 | 2.6 | 6.1 | 0.00 | 0.00 | 0.00 | 82 | 1024.6 |
| 20260505075128 | 71 | 187 | 3.5 | 7.0 | 0.00 | 0.00 | 0.00 | 82 | 1024.6 |
| 20260505074624 | 72 | 155 | 1.7 | 5.2 | 0.00 | 0.00 | 0.00 | 82 | 1024.8 |
| 20260505074121 | 72 | 270 | 1.7 | 8.7 | 0.00 | 0.00 | 0.00 | 82 | 1024.7 |
| 20260505073619 | 72 | 147 | 1.7 | 6.1 | 0.00 | 0.00 | 0.00 | 82 | 1024.7 |
| 20260505073118 | 72 | 44 | 1.7 | 6.1 | 0.00 | 0.00 | 0.00 | 82 | 1024.9 |
| 20260505072613 | 72 | 179 | 2.6 | 2.6 | 0.00 | 0.00 | 0.00 | 81 | 1024.9 |
| 20260505072109 | 72 | 91 | 0.0 | 3.5 | 0.00 | 0.00 | 0.00 | 81 | 1025.3 |
| 20260505071605 | 72 | 225 | 1.7 | 5.2 | 0.00 | 0.00 | 0.00 | 81 | 1025.0 |
| 20260505071103 | 72 | 140 | 2.6 | 8.7 | 0.00 | 0.00 | 0.00 | 80 | 1025.1 |
| 20260505070600 | 72 | 194 | 1.7 | 3.5 | 0.00 | 0.00 | 0.00 | 80 | 1024.8 |
| 20260505070056 | 72 | 255 | 0.9 | 3.5 | 0.00 | 0.00 | 0.00 | 80 | 1024.9 |
| 20260505065552 | 72 | 37 | 4.3 | 7.8 | 0.00 | 0.00 | 0.00 | 80 | 1024.9 |
| 20260505065049 | 72 | 212 | 1.7 | 5.2 | 0.00 | 0.00 | 0.00 | 80 | 1025.1 |
| 20260505064546 | 72 | 205 | 0.9 | 6.1 | 0.00 | 0.00 | 0.00 | 80 | 1025.3 |
| 20260505064044 | 72 | 173 | 1.7 | 6.1 | 0.00 | 0.00 | 0.00 | 80 | 1024.9 |
| 20260505063541 | 72 | 148 | 0.9 | 3.5 | 0.00 | 0.00 | 0.00 | 79 | 1025.2 |
| 20260505063037 | 72 | 136 | 4.3 | 8.7 | 0.00 | 0.00 | 0.00 | 79 | 1025.2 |
| 20260505062534 | 72 | 143 | 4.3 | 7.0 | 0.00 | 0.00 | 0.00 | 79 | 1025.3 |
| 20260505062031 | 72 | 135 | 0.9 | 7.0 | 0.00 | 0.00 | 0.00 | 79 | 1025.4 |
| 20260505061528 | 72 | 137 | 1.7 | 2.6 | 0.00 | 0.00 | 0.00 | 79 | 1025.3 |
| 20260505061026 | 71 | 151 | 1.7 | 5.2 | 0.00 | 0.00 | 0.00 | 79 | 1025.6 |
| 20260505060523 | 71 | 238 | 0.9 | 3.5 | 0.00 | 0.00 | 0.00 | 79 | 1025.9 |
| 20260505060020 | 71 | 198 | 4.3 | 7.0 | 0.00 | 0.00 | 0.00 | 79 | 1025.6 |
| 20260505055515 | 72 | 347 | 1.7 | 3.5 | 0.00 | 0.00 | 0.00 | 78 | 1025.8 |
| 20260505055012 | 71 | 208 | 1.7 | 3.5 | 0.00 | 0.00 | 0.00 | 78 | 1025.7 |
| 20260505054510 | 71 | 162 | 1.7 | 2.6 | 0.00 | 0.00 | 0.00 | 78 | 1025.9 |
| 20260505054008 | 71 | 83 | 0.9 | 3.5 | 0.00 | 0.00 | 0.00 | 78 | 1025.7 |
| 20260505053504 | 71 | 115 | 1.7 | 5.2 | 0.00 | 0.00 | 0.00 | 78 | 1025.9 |
| 20260505053001 | 71 | 207 | 0.0 | 2.6 | 0.00 | 0.00 | 0.00 | 78 | 1026.0 |
| 20260505052458 | 71 | 196 | 5.2 | 6.1 | 0.00 | 0.00 | 0.00 | 78 | 1026.0 |
| 20260505051955 | 71 | 328 | 0.0 | 1.7 | 0.00 | 0.00 | 0.00 | 78 | 1025.9 |
| 20260505051452 | 71 | 169 | 0.9 | 7.0 | 0.00 | 0.00 | 0.00 | 77 | 1026.0 |
| 20260505050951 | 71 | 125 | 1.7 | 3.5 | 0.00 | 0.00 | 0.00 | 77 | 1026.3 |
| 20260505050448 | 71 | 130 | 1.7 | 7.0 | 0.00 | 0.00 | 0.00 | 77 | 1026.3 |
| 20260505041416 | 70 | 172 | 0.0 | 1.7 | 0.00 | 0.00 | 0.00 | 77 | 1026.6 |
| 20260505040913 | 70 | 303 | 0.0 | 6.1 | 0.00 | 0.00 | 0.00 | 77 | 1026.6 |
| 20260505040411 | 70 | 251 | 0.9 | 0.9 | 0.00 | 0.00 | 0.00 | 77 | 1026.8 |
| 20260505035907 | 70 | 325 | 0.9 | 2.6 | 0.00 | 0.00 | 0.00 | 77 | 1026.9 |
| 20260505035403 | 70 | 8 | 0.9 | 1.7 | 0.00 | 0.00 | 0.00 | 76 | 1026.7 |
| 20260505034901 | 71 | 183 | 0.9 | 1.7 | 0.00 | 0.00 | 0.00 | 76 | 1026.8 |
| 20260505034357 | 71 | 208 | 0.9 | 5.2 | 0.00 | 0.00 | 0.00 | 76 | 1026.9 |
| 20260505033854 | 71 | 116 | 0.9 | 2.6 | 0.00 | 0.00 | 0.00 | 75 | 1026.9 |
| 20260505033351 | 71 | 9 | 0.9 | 3.5 | 0.00 | 0.00 | 0.00 | 74 | 1026.9 |
| 20260505032849 | 71 | 141 | 1.7 | 2.6 | 0.00 | 0.00 | 0.00 | 74 | 1026.9 |
| 20260505032345 | 72 | 270 | 0.9 | 3.5 | 0.00 | 0.00 | 0.00 | 74 | 1027.1 |
| 20260505031842 | 72 | 277 | 0.9 | 1.7 | 0.00 | 0.00 | 0.00 | 73 | 1027.1 |
| 20260505031339 | 72 | 193 | 3.5 | 5.2 | 0.00 | 0.00 | 0.00 | 72 | 1026.9 |
| 20260505030836 | 73 | 81 | 1.7 | 6.1 | 0.00 | 0.00 | 0.00 | 71 | 1027.0 |
| 20260505030332 | 73 | 181 | 1.7 | 3.5 | 0.00 | 0.00 | 0.00 | 71 | 1027.1 |
| 20260505025828 | 73 | 182 | 1.7 | 3.5 | 0.00 | 0.00 | 0.00 | 71 | 1026.9 |
| 20260505025326 | 73 | 122 | 2.6 | 2.6 | 0.00 | 0.00 | 0.00 | 71 | 1026.8 |
| 20260505024824 | 73 | 176 | 0.0 | 2.6 | 0.00 | 0.00 | 0.00 | 71 | 1026.8 |
| 20260505024321 | 73 | 169 | 1.7 | 6.1 | 0.00 | 0.00 | 0.00 | 71 | 1026.9 |
| 20260505023818 | 73 | 169 | 0.9 | 5.2 | 0.00 | 0.00 | 0.00 | 71 | 1026.9 |
| 20260505023315 | 73 | 210 | 0.9 | 3.5 | 0.00 | 0.00 | 0.00 | 71 | 1027.0 |
| 20260505022812 | 73 | 173 | 3.5 | 5.2 | 0.00 | 0.00 | 0.00 | 70 | 1026.8 |
| 20260505022309 | 73 | 173 | 2.6 | 5.2 | 0.00 | 0.00 | 0.00 | 70 | 1026.8 |
| 20260505021806 | 73 | 146 | 0.9 | 5.2 | 0.00 | 0.00 | 0.00 | 70 | 1026.7 |
| 20260505021303 | 73 | 329 | 0.9 | 2.6 | 0.00 | 0.00 | 0.00 | 70 | 1026.9 |
| 20260505020759 | 73 | 263 | 1.7 | 2.6 | 0.00 | 0.00 | 0.00 | 70 | 1026.8 |
| 20260505020254 | 73 | 183 | 0.9 | 1.7 | 0.00 | 0.00 | 0.00 | 69 | 1027.0 |
| 20260505015752 | 73 | 139 | 0.0 | 1.7 | 0.00 | 0.00 | 0.00 | 69 | 1026.8 |
| 20260505015249 | 73 | 191 | 0.0 | 2.6 | 0.00 | 0.00 | 0.00 | 68 | 1026.8 |
| 20260505014746 | 73 | 168 | 3.5 | 3.5 | 0.00 | 0.00 | 0.00 | 68 | 1026.8 |
| 20260505014243 | 73 | 143 | 3.5 | 5.2 | 0.00 | 0.00 | 0.00 | 68 | 1026.7 |
| 20260505013739 | 74 | 196 | 0.9 | 5.2 | 0.00 | 0.00 | 0.00 | 67 | 1026.3 |
| 20260505013237 | 74 | 168 | 2.6 | 5.2 | 0.00 | 0.00 | 0.00 | 67 | 1026.3 |
| 20260505012735 | 74 | 184 | 2.6 | 7.0 | 0.00 | 0.00 | 0.00 | 66 | 1026.3 |
| 20260505012232 | 74 | 136 | 1.7 | 3.5 | 0.00 | 0.00 | 0.00 | 66 | 1026.4 |
| 20260505011727 | 74 | 103 | 1.7 | 3.5 | 0.00 | 0.00 | 0.00 | 65 | 1026.6 |
| 20260505011225 | 74 | 344 | 1.7 | 5.2 | 0.00 | 0.00 | 0.00 | 64 | 1026.4 |
| 20260505010720 | 74 | 155 | 2.6 | 5.2 | 0.00 | 0.00 | 0.00 | 65 | 1026.6 |
| 20260505010217 | 75 | 213 | 1.7 | 5.2 | 0.00 | 0.00 | 0.00 | 64 | 1026.6 |
| 20260505005713 | 75 | 299 | 0.9 | 7.8 | 0.00 | 0.00 | 0.00 | 64 | 1026.4 |
| 20260505005211 | 75 | 128 | 0.9 | 2.6 | 0.00 | 0.00 | 0.00 | 63 | 1026.4 |
| 20260505004708 | 75 | 201 | 2.6 | 3.5 | 0.00 | 0.00 | 0.00 | 63 | 1026.6 |
| 20260505004204 | 75 | 118 | 0.0 | 1.7 | 0.00 | 0.00 | 0.00 | 62 | 1026.2 |
| 20260505003701 | 76 | 198 | 0.9 | 6.1 | 0.00 | 0.00 | 0.00 | 61 | 1026.8 |
| 20260505003159 | 76 | 195 | 2.6 | 5.2 | 0.00 | 0.00 | 0.00 | 60 | 1026.4 |
| 20260505002655 | 76 | 341 | 0.9 | 9.6 | 0.00 | 0.00 | 0.00 | 60 | 1026.4 |
| 20260505002153 | 76 | 354 | 1.7 | 3.5 | 0.00 | 0.00 | 0.00 | 60 | 1026.3 |
| 20260505001649 | 76 | 202 | 3.5 | 6.1 | 0.00 | 0.00 | 0.00 | 60 | 1026.4 |
| 20260505001147 | 77 | 159 | 5.2 | 8.7 | 0.00 | 0.00 | 0.00 | 59 | 1026.6 |
| 20260505000644 | 77 | 204 | 0.9 | 6.1 | 0.00 | 0.00 | 0.00 | 59 | 1026.6 |
| 20260505000142 | 77 | 32 | 1.7 | 7.0 | 0.00 | 0.00 | 0.00 | 59 | 1026.6 |
| 20260504235638 | 77 | 192 | 0.9 | 2.6 | 0.00 | 0.00 | 0.00 | 58 | 1026.6 |
| 20260504235135 | 77 | 191 | 3.5 | 7.8 | 0.00 | 0.00 | 0.00 | 57 | 1026.7 |
| 20260504234632 | 78 | 165 | 1.7 | 7.0 | 0.00 | 0.00 | 0.00 | 57 | 1027.0 |
| 20260504234130 | 78 | 139 | 4.3 | 7.0 | 0.00 | 0.00 | 0.00 | 57 | 1027.2 |
| 20260504233625 | 78 | 190 | 2.6 | 5.2 | 0.00 | 0.00 | 0.00 | 56 | 1027.3 |
| 20260504233121 | 78 | 223 | 2.6 | 7.0 | 0.00 | 0.00 | 0.00 | 55 | 1027.0 |
| 20260504232619 | 79 | 204 | 7.0 | 8.7 | 0.00 | 0.00 | 0.00 | 54 | 1027.3 |
| 20260504232116 | 79 | 150 | 3.5 | 8.7 | 0.00 | 0.00 | 0.00 | 54 | 1027.3 |
| 20260504231612 | 79 | 148 | 3.5 | 7.0 | 0.00 | 0.00 | 0.00 | 54 | 1027.2 |